Flag for U.S.A. Weather past 2 weeks in Daytona Beach, Florida, U.S.A.

68 °F


Feels Like: 68 °F
Forecast: 66 / 74 °F
Wind: 15 mph from East

Location: Daytona Beach Regional Airport

Current Time: Nov 24, 2015 at 7:58:31 PM

Latest Report: Nov 24, 2015 at 6:53 PM

Visibility: 10 mi

Pressure: 30.27 "Hg

Humidity: 55%

Dew point: 51 °F

Location of Daytona BeachLocation

Historic Weather in Daytona Beach — Graph


Daytona Beach temperature yesterday

Maximum temperature yesterday: 63 °F (at 1:53 PM)
Minimum temperature yesterday: 45 °F (at 6:53 AM)
Average temperature yesterday: 56 °F

Past Weeks' High & Low Weather Summary

High87 °F (Nov 12, 1:53 PM)100% (Nov 10, 4:53 AM)30.32 "Hg (Nov 10, 4:53 AM)
Low45 °F (Nov 23, 6:53 AM)31% (Nov 12, 2:53 PM)29.83 "Hg (Nov 22, 3:53 AM)
Average71 °F77%30.08 "Hg
* Reported Nov 9 5:53 PM — Nov 24 5:53 PM, Daytona Beach, Weather by CustomWeather, © 2015

Note: Actual official high and low records may vary slightly from our data, if they occured in-between our weather recording intervals... More about our weather records


Daytona Beach weather history for previous 24 hours

Time TempWeatherWind HumidityBarometerVisibility
5:53 PM
Tue, Nov 24
68 °FOvercast.16 mph53%30.24 "Hg10 mi
4:53 PM67 °FMore clouds than sun.13 mph61%30.25 "Hg10 mi
3:53 PM68 °FOvercast.14 mph53%30.25 "Hg10 mi
2:53 PM68 °FMore clouds than sun.13 mph53%30.25 "Hg10 mi
1:53 PM70 °FPartly sunny.16 mph51%30.25 "Hg10 mi
12:53 PM68 °FPartly sunny.13 mph55%30.27 "Hg10 mi
11:53 AM72 °FPartly sunny.15 mph46%30.29 "Hg10 mi
10:53 AM68 °FPartly sunny.16 mph55%30.30 "Hg10 mi
9:53 AM69 °FBroken clouds.18 mph51%30.29 "Hg10 mi
8:53 AM67 °FBroken clouds.14 mph55%30.29 "Hg10 mi
7:53 AM66 °FPartly sunny.13 mph54%30.27 "Hg10 mi
6:53 AM64 °FPassing clouds.9 mph61%30.26 "Hg10 mi
5:53 AM64 °FPassing clouds.9 mph63%30.24 "Hg10 mi
4:53 AM63 °FPassing clouds.13 mph68%30.23 "Hg10 mi
3:53 AM62 °FPassing clouds.14 mph67%30.22 "Hg10 mi
2:53 AM62 °FPassing clouds.13 mph67%30.22 "Hg10 mi
1:53 AM60 °FPassing clouds.10 mph72%30.24 "Hg10 mi
12:53 AM53 °FPassing clouds.5 mph83%30.25 "Hg10 mi
11:53 PM
Mon, Nov 23
54 °FPassing clouds.7 mph83%30.26 "Hg10 mi
10:53 PM55 °FPassing clouds.7 mph80%30.26 "Hg10 mi
9:53 PM59 °FPassing clouds.9 mph69%30.26 "Hg10 mi
8:53 PM60 °FPassing clouds.9 mph69%30.25 "Hg10 mi
7:53 PM60 °FPassing clouds.10 mph67%30.23 "Hg10 mi
Weather by CustomWeather, © 2015

See weather overviewHow to use our weather pages